TimeEST,TemperatureF,Dew PointF,Humidity,Sea Level PressureIn,VisibilityMPH,Wind Direction,Wind SpeedMPH,Gust SpeedMPH,PrecipitationIn,Events,Conditions,WindDirDegrees,DateUTC
12:54 AM,45.0,21.0,39,30.29,10.0,Calm,Calm,-,N/A,,Clear,0,2013-03-09 05:54:00
1:54 AM,43.0,21.9,43,30.30,10.0,Calm,Calm,-,N/A,,Clear,0,2013-03-09 06:54:00
2:54 AM,43.0,19.0,38,30.29,10.0,North,4.6,-,N/A,,Clear,10,2013-03-09 07:54:00
3:54 AM,39.0,19.9,46,30.27,10.0,NNW,4.6,-,N/A,,Clear,340,2013-03-09 08:54:00
4:54 AM,37.9,28.0,68,30.28,10.0,Calm,Calm,-,N/A,,Clear,0,2013-03-09 09:54:00
5:54 AM,37.0,27.0,67,30.30,10.0,Calm,Calm,-,N/A,,Clear,0,2013-03-09 10:54:00
6:54 AM,35.1,27.0,72,30.32,10.0,NW,3.5,-,N/A,,Clear,310,2013-03-09 11:54:00
7:54 AM,39.9,33.1,77,30.34,10.0,North,3.5,-,N/A,,Clear,360,2013-03-09 12:54:00
8:54 AM,46.0,26.1,46,30.36,10.0,ENE,3.5,-,N/A,,Clear,60,2013-03-09 13:54:00
9:54 AM,48.9,25.0,39,30.37,10.0,East,5.8,-,N/A,,Clear,100,2013-03-09 14:54:00
10:54 AM,51.1,25.0,36,30.35,10.0,SE,4.6,-,N/A,,Clear,140,2013-03-09 15:54:00
11:54 AM,54.0,24.1,31,30.34,10.0,Calm,Calm,-,N/A,,Clear,0,2013-03-09 16:54:00
12:54 PM,57.0,24.1,28,30.32,10.0,Variable,6.9,-,N/A,,Clear,0,2013-03-09 17:54:00
1:54 PM,60.1,24.1,25,30.28,10.0,ENE,4.6,-,N/A,,Clear,60,2013-03-09 18:54:00
2:54 PM,61.0,25.0,25,30.25,10.0,Variable,6.9,-,N/A,,Clear,0,2013-03-09 19:54:00
3:54 PM,63.0,25.0,24,30.25,10.0,Calm,Calm,-,N/A,,Clear,0,2013-03-09 20:54:00
4:54 PM,62.1,25.0,24,30.24,10.0,South,4.6,-,N/A,,Clear,180,2013-03-09 21:54:00
5:54 PM,60.1,24.1,25,30.25,10.0,SSW,3.5,-,N/A,,Clear,210,2013-03-09 22:54:00
6:54 PM,59.0,26.1,28,30.25,10.0,WSW,3.5,-,N/A,,Clear,240,2013-03-09 23:54:00
7:54 PM,57.0,26.1,30,30.26,10.0,Calm,Calm,-,N/A,,Clear,0,2013-03-10 00:54:00
8:54 PM,55.0,25.0,31,30.27,10.0,Calm,Calm,-,N/A,,Clear,0,2013-03-10 01:54:00
9:54 PM,54.0,30.0,40,30.26,10.0,Calm,Calm,-,N/A,,Clear,0,2013-03-10 02:54:00
10:54 PM,52.0,33.1,49,30.26,10.0,Calm,Calm,-,N/A,,Clear,0,2013-03-10 03:54:00
11:54 PM,51.1,30.9,46,30.25,10.0,Calm,Calm,-,N/A,,Clear,0,2013-03-10 04:54:00